Location: Audinghen
(50.8518°N, 1.6129°E)
Time: 05:55:25
(UTC+00:00)

Cosmos 2227 Rocket - Pass Details

Date: 07 August 2020
Orbit: 840 x 844 km, 71.0° (Epoch: 23 September)

Event Time Altitude Azimuth Distance (km) Brightness Sun altitude
Exits shadow 03:15:07 12° 247° (WSW) 2,355 3.9 -10.4°
Maximum altitude 03:19:59 36° 312° (NW) 1,308 3.2 -9.8°
Drops below altitude 10° 03:25:13 10° 19° (NNE) 2,474 5.7 -9.2°
Sets 03:27:52 0° 28° (NNE) 3,412 6.8 -8.9°
